Theta_e
317 316 317 317 318 321 322 323 320 322 322 317 319 321 322 327 327 326 325 326 325 328 329 327 329 330 330 330 333 341 345 345 341 340 345 353 350 348 351 351 350 348 345 339 334 334 332 330 327 323 317 312 313 316 319 321 322 319 316 312 312 313 314 315 318 330 335 335 337 338 338 338 337 338 338 338 338 338 338 338 337 337 337 336 337 337 337 337 336 335 334 333 331 327 324 323 325
316 316 317 317 319 322 322 323 320 318 318 315 318 321 323 327 326 325 326 325 325 329 331 329 329 331 333 335 333 336 346 349 346 349 353 351 349 350 351 350 349 347 345 339 334 335 333 330 328 325 319 313 313 316 319 321 323 323 319 314 312 312 313 313 321 332 335 335 338 338 338 338 337 338 338 338 338 338 338 338 338 337 337 337 337 337 336 337 336 334 333 331 328 323 321 321 322
315 316 318 319 320 321 322 323 318 316 315 314 317 323 325 325 325 326 326 325 326 331 333 332 332 334 334 335 335 337 346 349 349 351 351 350 352 352 351 351 348 347 344 340 336 335 334 331 329 327 320 313 312 316 319 321 324 326 324 319 315 313 313 315 325 334 335 336 338 338 338 337 338 338 338 338 338 338 338 339 338 338 338 337 337 337 336 337 336 333 330 327 324 321 321 321 323
315 316 318 320 321 322 322 322 320 317 314 315 316 323 326 325 325 326 327 328 330 333 334 335 334 337 337 338 340 342 347 347 348 350 351 351 352 352 351 350 348 346 344 342 339 336 334 332 330 329 323 314 312 316 318 321 325 328 328 326 323 321 321 325 332 335 336 337 337 337 337 337 337 338 338 338 338 338 338 338 338 338 337 336 336 336 336 337 336 332 326 322 322 322 323 323 323
314 317 318 318 320 322 322 321 321 318 316 317 317 323 326 324 325 325 327 332 335 334 333 334 335 339 340 342 343 345 346 345 346 347 351 352 352 352 351 349 347 346 344 344 341 336 334 332 331 330 325 317 312 315 318 321 324 327 331 333 331 330 331 334 336 337 337 338 337 337 337 337 337 337 338 338 338 337 337 338 337 337 337 336 335 335 334 334 332 327 322 320 323 324 323 322 318
316 318 318 318 320 321 321 319 318 318 319 322 320 323 325 324 325 324 326 332 334 332 332 335 334 337 340 346 348 348 348 345 346 346 351 352 351 351 350 348 347 345 344 344 341 336 334 333 332 332 327 319 313 313 317 320 323 327 333 336 334 334 336 337 337 337 338 338 337 337 336 336 337 337 337 337 337 337 337 336 336 336 336 336 335 333 330 327 323 320 319 321 324 323 320 317 315
317 319 320 319 320 320 320 317 317 318 321 323 322 323 324 324 325 324 324 326 330 332 334 335 335 336 339 347 350 350 349 347 347 349 351 352 351 350 349 347 346 345 344 344 341 336 335 334 333 333 330 323 314 312 316 319 323 326 331 335 334 335 337 337 337 337 337 337 337 336 336 336 336 336 336 336 336 336 335 335 334 334 334 334 332 327 321 316 314 316 319 323 324 322 319 317 315
317 319 320 320 321 321 319 317 319 320 321 323 323 324 324 325 325 323 323 323 325 330 335 338 337 335 339 345 347 348 349 348 348 350 351 351 351 350 348 347 345 345 344 344 342 337 335 335 334 334 331 326 317 312 314 318 323 326 331 335 335 335 336 337 337 337 337 337 336 335 335 335 335 335 335 334 334 334 333 333 331 330 329 327 322 315 311 309 311 317 321 323 324 322 320 318 316
317 318 319 320 320 320 318 318 319 321 323 323 324 324 325 325 324 323 322 323 323 326 331 337 337 334 340 346 347 348 349 349 349 350 350 350 350 349 348 346 345 345 344 344 340 336 336 336 335 334 333 329 320 313 313 317 321 326 332 334 334 335 335 336 337 336 336 336 335 335 335 335 334 334 333 332 331 330 328 327 325 324 322 318 313 308 308 309 313 318 322 324 324 323 321 319 318
317 318 319 320 319 317 316 317 319 321 323 324 324 324 324 324 323 323 322 322 323 324 326 330 336 335 342 348 348 347 349 350 350 351 350 350 349 347 347 345 344 345 344 344 339 335 337 336 336 335 334 331 324 316 312 316 320 325 331 333 333 335 335 336 336 336 335 335 335 335 334 333 333 332 330 328 326 324 321 320 319 318 316 312 309 308 308 309 315 320 322 324 324 322 321 321 319
318 319 319 318 316 314 314 317 319 322 323 324 324 324 323 323 322 323 321 321 321 323 324 326 335 336 343 349 350 348 350 350 350 350 350 349 348 346 346 344 344 344 345 344 338 335 336 336 336 335 334 333 328 320 313 314 318 324 329 332 334 334 335 335 336 336 335 335 334 334 333 332 331 330 328 326 323 320 318 316 314 313 311 309 309 309 308 309 315 321 323 324 324 322 322 321 319
319 319 319 317 315 315 316 317 319 322 323 323 323 323 322 321 321 321 321 321 321 322 322 326 333 334 340 346 350 349 350 350 350 350 349 348 347 346 345 344 344 344 345 344 338 335 336 336 337 336 335 334 330 324 316 313 316 322 328 332 333 332 333 335 335 336 336 335 334 333 331 330 330 329 328 325 322 318 316 313 311 310 309 308 308 308 308 309 315 320 323 324 324 322 323 321 319
318 319 319 317 317 318 318 317 319 321 321 322 323 322 322 321 321 321 321 321 321 322 320 324 330 335 341 345 350 350 350 350 351 350 349 347 347 346 345 345 344 345 345 344 340 336 336 336 336 336 336 334 332 328 321 314 314 320 326 331 332 331 331 333 334 334 335 334 333 332 329 329 328 327 326 324 321 318 315 311 310 309 308 308 308 308 309 309 314 320 322 324 324 323 323 322 319
318 319 319 318 319 319 318 317 319 319 319 322 322 321 321 320 321 321 322 322 322 322 321 322 326 337 344 346 350 349 351 351 350 349 349 348 347 347 345 345 345 346 345 345 343 339 339 338 337 336 336 335 333 330 325 319 314 315 321 329 331 330 330 331 332 332 331 330 330 330 328 327 327 327 326 325 323 319 315 312 311 310 308 308 308 308 308 308 312 318 321 324 324 324 324 323 320
317 319 318 318 318 318 318 318 319 318 318 322 322 321 321 321 321 321 323 323 323 324 321 321 326 337 342 344 348 349 353 351 350 349 349 348 347 347 345 346 346 346 345 345 345 343 342 341 338 337 337 336 334 332 328 322 317 312 316 327 330 329 331 330 332 331 328 327 328 329 327 325 325 325 325 325 324 322 317 314 312 311 310 309 309 308 308 309 310 315 320 323 324 325 325 324 323
318 318 318 318 317 316 317 319 319 317 319 322 321 321 321 320 322 323 326 326 325 323 321 323 328 335 340 341 343 348 352 351 350 349 349 349 347 348 346 347 346 345 345 345 345 343 344 342 341 339 338 338 337 336 330 324 321 312 314 326 330 330 332 331 331 329 327 328 328 329 330 330 329 328 329 326 321 322 320 317 314 312 312 309 309 309 308 308 309 312 317 321 323 324 325 324 325
318 318 319 317 316 316 318 320 319 318 320 322 321 321 320 320 324 327 329 328 326 323 323 329 333 336 339 340 341 347 352 350 350 349 348 349 348 348 347 346 346 346 346 345 345 344 344 343 342 341 339 340 340 338 335 326 318 314 318 328 331 332 332 331 330 329 331 330 325 329 334 333 332 334 336 331 323 321 321 319 316 314 314 312 310 309 309 309 308 309 313 317 320 321 323 323 323
318 318 318 316 317 318 319 320 321 320 321 321 321 321 320 320 324 329 331 328 326 328 329 332 339 342 342 344 346 349 351 349 350 349 349 349 348 348 346 345 345 346 346 345 345 344 345 343 342 342 341 341 340 339 337 325 318 321 325 328 331 331 330 330 331 333 334 329 327 334 334 330 331 332 331 330 327 323 320 319 318 316 315 315 312 310 309 309 308 309 309 312 316 319 325 329 325
318 318 317 317 318 320 321 322 321 321 320 322 322 321 321 321 323 329 332 327 324 330 331 333 342 344 345 348 350 350 350 350 350 349 349 349 348 347 346 345 345 345 346 345 344 343 343 342 341 342 341 341 339 338 336 329 328 331 330 330 330 328 329 333 334 334 335 332 332 333 326 324 329 328 324 326 328 322 320 319 318 318 317 317 316 314 311 309 309 308 308 311 313 317 326 334 332
319 319 317 318 319 321 322 321 321 320 320 321 322 321 321 321 323 329 331 327 325 330 332 336 342 342 345 350 351 349 350 350 349 349 349 348 348 347 346 345 344 344 345 344 343 342 342 341 341 341 340 340 338 336 335 333 333 334 333 332 329 328 332 336 334 333 335 332 328 325 325 329 332 332 330 331 332 330 329 326 323 322 321 319 317 317 315 313 312 309 308 309 310 319 330 334 335
319 318 318 319 320 321 321 321 320 319 319 320 322 321 321 325 329 332 332 326 324 329 333 337 339 339 346 350 349 349 349 349 349 348 348 347 347 346 345 345 344 343 344 344 343 342 342 341 341 340 339 337 336 335 334 334 334 334 335 334 332 333 334 336 333 330 328 325 324 329 334 336 336 337 336 336 337 336 336 333 332 331 329 326 321 324 327 324 324 320 315 310 312 327 334 334 335
318 318 319 320 321 321 321 321 319 318 319 320 321 320 321 328 333 334 331 327 329 333 333 333 335 339 346 349 348 349 348 349 349 348 347 347 346 346 345 344 343 343 343 343 343 343 342 341 339 338 336 335 335 334 334 333 334 335 335 335 335 334 333 334 333 328 324 327 332 336 336 335 336 338 337 338 338 338 337 335 337 336 335 334 329 332 334 329 332 332 328 322 324 332 334 333 334
318 319 319 320 320 321 320 320 319 319 319 320 320 320 321 323 330 334 331 332 338 339 336 335 338 342 346 348 348 349 348 349 348 347 347 346 346 345 344 344 343 343 342 342 342 341 340 339 337 336 335 334 335 334 334 333 334 336 335 335 334 332 332 333 333 331 331 334 336 336 335 336 337 337 336 338 338 338 337 335 337 336 336 337 335 335 334 330 332 334 332 330 329 331 331 332 333
318 318 319 320 320 321 321 320 319 318 319 320 320 321 321 320 325 332 333 337 342 342 342 342 342 342 345 348 348 348 348 347 347 346 346 346 345 344 344 344 343 342 341 341 341 339 338 336 335 334 334 334 334 333 333 334 334 335 334 333 334 333 334 335 335 335 337 338 336 336 337 338 338 336 337 338 337 337 337 336 337 336 335 337 337 336 336 334 333 333 333 332 330 330 331 333 333
318 318 320 320 320 321 320 320 319 318 319 320 320 320 321 321 323 332 337 340 343 344 344 344 344 343 345 348 347 347 347 346 346 345 345 344 344 344 343 343 342 341 340 339 338 337 336 335 334 334 334 334 334 333 334 335 335 335 334 333 334 335 336 337 336 337 338 338 337 339 338 337 338 337 337 337 337 337 338 337 336 336 336 336 337 338 337 336 335 335 334 333 332 331 332 333 333
318 318 319 320 320 321 320 320 319 319 319 319 321 319 321 322 323 338 346 344 343 345 345 345 347 347 346 346 346 347 346 345 345 344 344 344 343 343 342 342 341 340 339 337 336 335 335 334 334 334 334 335 334 335 335 336 336 337 336 334 334 336 336 335 337 338 339 338 337 339 337 335 337 337 337 337 337 338 339 337 336 336 337 337 337 338 337 337 337 336 336 335 334 333 332 332 333
319 319 319 319 320 320 320 320 319 319 319 320 321 318 324 327 325 338 348 348 343 344 347 348 348 348 346 345 345 346 345 345 345 344 344 344 343 342 341 340 339 339 337 336 335 334 335 334 334 334 335 335 335 336 337 338 338 338 337 336 337 338 336 335 338 339 339 339 337 336 336 334 336 336 336 337 338 339 339 339 338 338 339 338 337 338 337 337 338 337 337 336 334 334 333 333 333
319 319 319 318 319 321 320 320 319 319 319 320 320 321 328 331 329 338 347 348 345 345 347 346 345 347 347 346 346 346 346 346 344 344 344 343 343 341 341 340 338 337 336 335 335 334 335 334 334 335 335 336 336 337 338 338 338 338 338 339 339 337 336 337 339 339 340 339 335 334 335 334 335 335 334 336 338 339 338 337 337 337 338 338 337 337 337 337 338 338 337 337 336 335 335 334 334
319 318 318 317 318 319 320 320 320 319 320 320 320 322 326 333 338 341 342 344 346 344 343 343 343 345 347 346 346 346 346 346 344 344 343 342 342 341 340 339 337 337 336 335 335 334 334 335 335 335 336 336 336 338 338 338 338 337 339 340 339 336 337 338 338 338 339 338 335 334 335 333 333 333 333 335 336 336 333 332 334 334 335 336 335 334 336 338 338 338 337 337 338 337 337 337 336
318 318 317 317 317 317 319 320 319 319 319 320 320 317 324 336 340 339 339 339 345 345 343 343 345 345 345 345 343 343 342 341 341 341 341 342 342 340 339 338 337 336 336 335 334 334 335 336 336 335 336 337 336 336 337 339 338 336 338 339 338 337 339 338 338 339 337 337 337 335 334 334 333 332 333 333 332 331 330 330 332 333 332 332 333 333 335 338 337 338 338 337 338 337 337 337 336
317 317 317 316 315 315 319 320 318 319 318 321 321 314 327 341 339 339 340 338 342 346 346 345 346 345 343 342 340 339 338 337 337 337 339 342 341 340 339 337 337 336 336 336 335 336 337 337 337 336 336 337 338 337 338 339 338 338 339 340 338 338 340 340 340 339 338 338 338 336 334 334 334 334 333 333 331 331 331 331 331 332 332 331 333 334 333 334 334 335 336 336 337 337 337 337 336
317 314 314 315 314 315 319 320 318 319 318 321 320 316 332 342 339 340 342 339 336 340 344 343 343 342 340 339 337 337 337 336 335 336 339 341 341 340 339 337 337 337 336 336 336 337 337 336 337 338 336 338 338 338 339 339 339 339 340 339 337 337 338 338 338 339 339 339 338 336 335 335 336 335 334 335 333 333 334 334 333 331 331 331 331 333 334 334 333 332 334 334 334 335 335 336 336
316 314 313 313 314 316 317 319 319 320 319 321 320 322 335 340 339 341 343 340 334 335 338 338 338 336 336 337 337 337 337 338 337 336 339 341 340 340 338 337 337 337 337 336 336 337 335 335 337 338 337 338 338 338 338 338 339 339 338 338 337 337 337 336 337 339 339 339 339 337 335 335 336 335 335 335 334 335 336 336 335 332 332 333 332 332 334 337 336 332 332 333 333 332 332 334 333
314 314 314 314 314 315 316 317 319 320 319 321 320 324 334 337 339 343 343 339 335 334 334 336 338 335 335 337 339 340 340 340 339 339 340 340 340 340 339 338 337 337 338 336 334 335 335 336 338 338 338 338 337 338 338 338 338 338 337 337 337 336 336 336 337 339 338 338 338 337 336 336 335 335 334 333 333 334 334 334 334 331 332 333 333 332 333 336 336 332 331 333 333 332 332 333 332
314 313 313 314 315 315 316 316 319 319 319 321 321 329 337 338 339 342 341 338 336 335 334 338 339 337 339 340 340 341 341 341 340 340 341 341 340 340 340 339 337 336 336 334 334 336 337 337 338 337 335 336 336 338 339 338 337 338 337 337 337 337 336 336 337 337 338 337 337 337 336 336 336 335 334 333 333 333 332 332 332 332 332 332 332 333 333 334 334 331 332 333 333 333 333 333 333
316 315 314 314 314 315 318 318 319 319 319 320 322 331 339 339 338 340 339 337 338 336 335 336 338 339 341 340 340 341 340 340 340 341 341 340 338 338 339 339 337 335 334 334 335 336 337 338 337 336 333 333 336 338 339 338 338 338 338 337 338 338 338 338 337 337 337 337 337 337 336 336 336 335 335 334 333 334 334 333 333 333 333 333 333 333 333 333 332 332 333 333 333 333 333 333 333
317 316 315 315 315 315 318 320 319 319 319 320 324 331 337 339 337 339 339 337 339 337 334 335 338 340 340 340 341 341 340 340 340 340 340 337 336 337 338 338 337 336 336 336 336 336 337 337 336 335 333 333 335 338 338 338 338 338 339 339 338 338 338 337 337 337 336 335 335 336 336 335 335 335 335 334 334 334 333 333 333 333 332 333 332 333 333 332 331 332 332 332 333 333 332 333 332
318 317 315 315 316 316 319 320 318 320 319 320 325 329 334 338 336 339 340 337 338 339 337 337 338 338 339 340 340 339 338 338 338 338 338 337 336 336 338 338 338 337 338 337 336 337 337 337 335 334 334 333 334 337 337 338 338 337 339 339 338 338 337 336 336 336 335 334 333 333 334 334 333 333 333 333 334 333 333 333 333 332 332 333 332 332 333 332 332 332 331 331 332 332 332 332 331
317 317 315 314 316 318 319 320 319 320 320 322 327 328 331 335 336 339 340 337 338 339 338 338 337 337 338 339 339 338 337 337 337 336 336 337 337 337 337 337 337 337 338 337 336 336 336 336 335 334 333 333 334 336 336 337 338 337 338 338 338 337 336 336 335 334 334 333 331 332 332 332 332 332 332 332 333 333 333 333 333 333 332 332 331 330 331 331 331 331 330 330 330 330 331 331 331
317 318 315 313 316 318 317 319 322 320 322 327 328 329 333 334 334 336 337 337 338 338 338 337 337 337 338 339 337 337 338 338 337 336 335 335 336 337 335 335 336 336 337 337 336 336 335 335 334 333 332 333 335 336 335 336 336 337 337 336 335 334 333 334 333 333 333 332 332 331 330 330 330 330 330 330 330 330 331 330 331 331 331 330 329 328 329 329 330 330 329 329 329 329 329 329 329
317 318 316 315 317 319 318 321 323 321 324 329 329 331 334 336 335 336 337 337 338 337 338 338 338 338 337 338 337 338 338 338 337 336 336 335 336 336 335 334 336 335 335 336 335 335 336 335 333 334 335 335 335 335 335 335 335 334 334 333 332 332 332 332 332 332 332 331 330 328 328 328 328 327 327 326 326 326 327 327 326 326 327 326 325 325 325 325 325 327 327 325 325 326 327 326 326
316 318 317 317 319 320 320 321 321 319 320 326 329 327 330 335 336 338 338 337 337 337 338 339 339 338 337 337 338 337 338 338 337 337 336 336 335 335 336 335 334 333 333 335 335 334 335 335 334 335 335 335 334 335 336 336 336 335 335 334 333 333 333 332 332 332 331 330 328 327 327 327 326 326 325 324 324 323 325 325 324 324 324 322 321 321 321 320 320 322 323 322 321 322 324 325 324
314 316 317 318 320 319 319 320 318 316 317 325 328 322 326 334 333 334 337 336 337 338 338 339 339 339 339 338 338 337 337 338 337 336 336 336 335 335 336 335 334 334 334 335 335 335 336 335 335 335 335 335 335 335 336 336 336 336 335 335 334 333 333 331 330 330 329 328 327 326 326 325 324 324 324 323 323 322 323 323 321 320 319 317 318 319 318 316 318 318 319 319 318 318 321 323 324
314 316 317 318 318 319 320 321 319 318 319 325 327 321 325 333 333 332 336 336 336 337 336 337 339 339 339 338 338 338 337 337 336 335 335 336 335 335 335 335 335 335 335 335 335 336 335 334 335 335 334 334 334 335 334 334 334 334 333 333 333 332 332 330 329 328 328 327 327 326 324 323 323 323 323 322 321 320 319 318 316 314 313 312 314 316 314 313 314 314 314 315 313 314 317 319 320
315 318 318 318 319 320 322 322 320 319 319 320 324 322 320 327 333 333 335 336 336 337 334 335 339 339 338 338 338 337 337 336 335 335 335 335 335 334 334 335 334 335 334 334 334 334 333 333 334 333 332 332 333 332 332 331 331 331 331 331 330 330 329 328 327 327 326 326 325 324 322 321 321 320 319 317 316 315 314 313 312 311 311 311 311 312 311 311 311 310 310 311 310 311 313 315 316
317 317 317 320 321 322 323 322 318 317 317 318 322 322 317 322 330 332 334 335 335 337 336 336 339 338 338 338 337 336 335 335 334 334 335 335 334 334 335 335 334 334 334 333 333 332 332 332 332 331 331 331 331 330 330 329 329 330 330 330 329 328 327 326 326 325 325 324 323 321 320 318 317 316 314 313 312 312 311 311 311 310 310 310 310 310 310 310 309 309 309 309 309 309 309 311 311
318 317 316 318 320 322 321 320 318 316 315 316 320 323 319 320 327 332 334 335 333 333 335 336 338 338 338 337 335 334 334 334 334 334 334 334 333 333 334 335 334 333 333 333 333 332 332 331 329 329 329 328 328 328 328 328 327 328 328 327 327 326 326 325 324 324 323 322 321 320 318 316 315 312 311 311 311 310 310 310 309 309 309 308 308 307 307 307 306 307 307 306 306 306 306 308 309
317 316 315 315 316 318 318 317 317 315 314 316 319 323 320 317 324 331 331 331 330 329 332 335 337 337 338 336 334 334 334 334 334 333 333 333 332 332 333 334 333 333 332 333 332 331 331 329 327 327 326 326 326 326 326 326 325 325 325 324 324 324 324 323 322 322 321 320 319 318 317 316 314 311 310 310 310 309 309 308 308 307 306 306 305 304 304 304 304 304 303 303 303 302 303 304 304
317 316 314 313 313 316 317 315 315 314 315 318 319 321 320 318 323 330 329 328 328 328 330 334 336 338 337 335 334 333 334 334 333 332 332 332 332 331 332 332 332 332 331 331 330 329 329 327 325 325 325 324 324 324 324 324 324 323 322 322 321 321 321 320 320 319 319 318 317 317 316 313 311 310 309 309 308 307 306 306 305 304 303 302 301 301 301 300 301 301 300 299 300 300 300 301 300
315 315 313 313 313 316 317 315 315 315 316 318 319 319 319 319 321 327 328 328 328 329 332 334 335 337 336 334 333 332 333 333 332 331 331 331 331 331 330 331 331 332 331 329 328 328 327 325 324 324 323 323 323 323 322 322 322 322 321 320 319 319 318 318 317 317 317 316 315 315 313 311 309 308 308 306 305 305 303 302 302 300 300 299 298 298 298 298 298 298 298 297 298 297 297 299 299
315 316 316 315 313 315 315 314 314 316 316 316 317 317 317 318 323 327 328 329 328 329 333 334 333 335 335 333 332 331 331 332 332 331 331 331 330 329 329 329 331 331 329 328 327 325 324 323 323 323 322 321 321 321 320 320 320 320 319 318 317 317 316 316 315 315 314 314 313 312 311 309 308 306 305 304 302 301 300 299 298 298 297 297 297 297 297 297 297 297 296 296 297 297 296 297 298
314 316 315 314 314 315 314 314 316 315 314 315 315 316 320 323 327 330 328 328 329 330 334 335 333 333 334 333 332 331 330 331 331 330 330 330 328 328 327 328 328 328 327 325 324 323 323 322 322 321 320 320 319 319 319 318 318 318 317 316 315 315 315 314 314 314 313 312 311 309 308 307 305 303 302 300 299 298 298 297 297 297 297 297 297 297 297 297 296 296 296 296 296 296 296 296 297
313 313 313 315 317 317 314 314 317 315 313 314 314 317 323 326 328 330 327 327 330 331 333 335 335 334 334 333 331 330 330 331 331 330 330 329 328 327 327 327 326 325 324 323 322 322 322 321 321 320 319 319 318 317 317 317 316 316 315 314 314 314 313 313 313 312 311 309 308 307 305 304 302 300 299 298 297 297 297 296 296 296 296 296 296 296 296 296 296 296 296 296 296 296 297 297 296
313 311 313 316 317 317 315 314 315 314 313 315 315 316 320 322 325 329 328 328 330 332 332 335 336 335 334 332 330 330 330 330 330 330 329 328 328 328 326 325 324 323 323 323 322 321 321 320 320 319 318 317 316 316 315 315 314 314 313 313 313 312 313 312 311 310 308 306 305 304 302 300 299 298 297 297 296 296 296 296 296 296 296 295 296 296 296 296 296 296 296 295 296 297 299 300 300
314 313 315 316 314 314 315 314 315 315 314 315 316 317 317 318 322 327 327 328 330 332 333 334 334 334 333 331 330 331 330 330 330 329 328 328 328 327 325 324 323 323 322 322 321 321 320 319 319 318 317 316 315 314 314 313 313 312 312 312 312 312 311 310 308 306 305 304 302 301 299 298 297 297 296 296 296 295 295 295 295 295 295 295 296 296 296 296 296 295 295 295 296 298 301 302 303
315 315 315 315 315 314 314 315 315 314 314 314 316 317 317 318 324 326 325 327 330 331 332 333 334 334 332 331 331 331 330 330 330 328 328 327 327 326 325 324 323 322 321 321 320 320 319 318 317 317 316 315 314 313 312 312 311 311 311 311 311 310 309 306 305 304 302 301 299 298 297 297 296 296 295 295 295 295 295 296 295 295 295 295 296 296 296 295 295 295 295 295 296 298 300 302 303
313 313 313 313 315 315 315 316 315 314 314 314 315 317 317 319 327 328 325 326 328 329 331 333 334 334 332 332 331 331 331 330 329 328 327 326 325 324 323 323 322 321 320 320 319 319 318 317 317 316 315 314 313 312 311 311 311 310 310 310 309 307 305 304 302 301 299 298 297 297 296 296 295 295 295 295 295 295 296 296 295 295 295 295 295 296 295 295 295 295 295 295 296 297 300 302 303
313 313 313 313 314 315 315 315 314 314 314 313 314 315 316 321 327 327 326 325 327 329 330 331 334 333 332 332 331 330 330 330 329 327 326 325 324 323 322 321 320 320 319 319 318 318 317 317 316 315 314 313 312 312 311 310 310 310 309 307 305 303 302 301 299 298 297 297 296 296 296 295 295 295 295 295 295 296 296 296 295 295 295 295 295 295 295 295 295 296 296 296 296 298 301 303 303
Wind_Speed
12 12 11 12 12 14 13 7 6 5 5 9 9 10 11 12 8 8 13 9 2 1 5 10 9 9 9 9 10 6 11 10 7 5 3 9 13 15 17 19 20 19 18 21 21 18 16 12 10 8 7 6 6 9 10 11 11 12 12 13 13 13 14 13 14 16 16 14 13 12 12 12 11 11 10 10 10 11 10 9 10 9 9 9 8 8 8 8 9 9 9 9 10 10 9 8 8
11 11 11 12 9 10 10 4 5 6 7 9 9 10 12 13 11 12 14 8 3 4 8 10 9 8 9 8 13 4 11 13 8 7 13 15 16 16 18 21 19 19 19 21 22 18 16 13 11 9 7 6 7 9 10 11 11 12 12 13 13 13 13 12 15 16 15 13 12 11 11 11 10 10 10 10 10 10 9 9 10 9 8 8 8 8 8 8 9 9 9 9 9 9 8 7 8
11 9 8 10 10 9 10 7 7 7 9 9 9 10 11 11 11 15 12 7 4 7 7 7 6 5 8 7 8 3 8 11 10 12 16 16 17 18 19 21 19 20 19 20 21 19 17 14 11 9 8 6 8 10 10 11 11 12 12 13 13 13 13 13 15 14 13 12 11 11 11 10 10 10 9 9 9 9 9 9 9 8 8 8 8 8 8 7 8 8 8 8 8 7 7 7 8
11 9 6 10 12 10 9 7 7 8 10 9 8 10 11 8 10 15 8 5 3 5 6 6 4 1 6 7 6 4 11 11 9 8 13 15 17 20 22 22 20 20 18 18 18 18 17 14 12 10 8 7 8 10 10 11 11 11 12 12 13 13 13 13 14 13 12 11 11 10 10 10 9 9 9 9 8 8 8 8 8 8 7 7 7 6 6 6 6 7 8 7 7 6 6 7 8
9 8 7 8 10 8 6 6 7 9 9 9 9 11 12 7 9 13 5 2 3 5 6 6 4 1 1 4 8 2 8 8 6 5 11 16 19 21 22 21 20 19 19 18 16 18 18 14 13 11 9 8 8 10 10 11 10 11 11 12 12 12 13 13 13 12 11 11 11 10 10 9 8 8 8 7 7 8 7 7 7 7 6 6 5 5 4 4 5 7 7 7 6 6 6 7 8
7 8 9 9 12 9 7 8 9 10 11 11 10 12 15 14 11 8 4 3 5 7 8 8 6 3 1 6 10 7 5 5 9 8 13 19 20 21 21 21 20 19 20 18 15 18 18 14 13 11 10 9 9 9 10 11 11 11 11 12 12 12 13 13 12 11 11 11 10 9 9 8 8 7 7 6 6 6 6 6 6 6 6 6 5 4 4 5 6 6 7 7 7 6 7 8 9
8 9 9 9 11 9 8 10 11 12 12 14 14 15 15 17 10 5 9 9 6 8 8 8 7 6 1 9 11 12 7 5 10 12 16 20 21 22 21 21 21 21 19 14 13 19 18 14 13 11 10 9 9 9 10 12 11 11 11 11 11 12 13 12 12 11 10 10 9 9 8 7 7 6 6 6 5 5 4 4 4 4 4 3 3 5 5 5 5 6 7 8 7 7 8 9 10
9 11 11 8 8 7 8 11 12 12 13 15 17 18 14 15 11 6 12 10 8 7 6 6 6 7 3 7 7 9 8 8 13 16 17 18 21 22 21 21 22 20 17 13 15 21 18 15 13 11 11 10 9 9 10 11 11 11 11 11 11 13 13 12 12 11 10 9 9 8 7 6 5 5 5 4 3 3 3 2 2 2 2 3 4 4 4 4 6 7 8 8 8 7 9 10 10
10 12 11 8 8 9 11 12 12 13 15 17 18 19 16 17 16 10 12 10 10 9 7 6 7 7 5 9 10 10 6 11 15 17 17 20 22 20 21 21 20 19 18 14 16 21 18 15 13 11 11 10 10 9 10 11 11 12 11 11 11 12 13 12 11 10 10 9 8 8 7 6 5 4 3 2 1 1 1 2 2 2 2 2 3 3 4 5 7 8 9 9 8 8 9 10 11
12 13 9 7 8 11 12 12 13 13 14 17 17 18 16 16 14 11 12 11 13 11 10 8 9 7 11 12 9 9 7 13 15 17 20 21 21 20 20 20 19 19 17 14 15 21 18 15 13 11 11 10 10 9 9 10 11 11 12 11 11 12 12 12 11 10 9 9 8 7 6 5 4 3 2 1 1 1 1 1 1 1 1 2 3 4 5 7 9 9 9 9 8 8 10 10 11
11 12 11 9 10 11 11 12 13 13 16 17 11 12 15 14 10 10 12 12 14 13 11 8 9 10 14 13 7 9 10 13 15 19 21 20 20 19 19 19 20 17 14 13 16 20 18 16 14 12 12 10 10 9 9 10 10 11 12 12 10 11 12 11 10 10 9 8 7 6 5 4 4 3 2 1 1 1 1 1 1 1 2 3 3 4 5 8 9 10 9 9 8 8 10 10 10
11 10 9 8 11 11 12 14 14 14 18 15 7 10 15 13 9 9 12 12 13 14 13 10 8 11 12 13 8 12 14 15 17 19 19 19 19 19 19 20 19 16 15 14 15 18 17 16 14 13 12 10 10 9 9 10 11 11 12 12 10 10 11 11 10 9 8 7 6 5 4 4 4 3 2 1 1 1 1 1 1 2 2 3 3 3 6 8 10 10 9 9 8 8 9 9 10
12 10 9 9 10 11 14 14 14 15 14 12 8 9 7 7 8 9 11 12 11 13 14 13 11 7 10 13 11 14 16 18 18 18 18 19 19 19 19 19 19 16 17 15 14 16 15 15 14 14 13 11 11 10 10 10 11 12 13 12 10 10 10 10 9 8 7 6 5 5 3 4 4 3 2 1 0 1 1 1 2 2 3 3 3 3 5 7 9 10 9 9 8 8 7 8 8
14 13 10 9 10 12 14 12 14 12 10 12 7 4 7 4 7 8 9 11 12 12 13 14 15 7 15 13 11 16 18 19 18 18 18 19 19 19 20 19 18 16 17 15 14 14 14 14 13 12 12 11 11 10 10 10 11 11 13 13 10 10 9 9 9 8 7 5 5 4 3 2 3 3 2 1 0 0 1 1 1 2 2 3 3 2 4 6 9 10 9 8 8 7 6 7 7
15 15 10 8 9 11 11 11 14 11 10 9 4 9 5 5 6 9 10 11 11 10 12 13 16 7 13 13 11 18 21 19 19 18 18 19 18 18 21 19 17 17 17 15 14 14 14 13 10 11 10 9 9 9 10 11 10 11 12 13 10 9 9 8 8 7 6 5 5 4 4 3 2 1 0 0 1 0 1 1 1 1 2 3 3 2 3 5 7 9 9 8 7 6 6 6 5
15 14 8 8 10 11 10 11 11 11 10 1 8 5 2 7 6 9 9 10 10 8 12 11 14 8 10 16 16 21 22 21 20 20 19 19 18 17 19 18 18 17 17 16 15 15 14 12 11 11 9 8 7 6 8 10 10 11 13 13 11 10 8 7 6 5 5 5 5 6 7 6 4 3 3 2 1 1 0 1 1 1 2 2 3 3 2 2 5 7 8 8 6 5 4 4 4
13 12 7 8 10 11 10 11 9 9 8 7 8 3 3 6 5 7 6 8 11 7 9 9 9 4 8 14 23 26 24 24 21 21 20 18 19 19 19 19 18 16 15 16 15 15 14 13 12 11 11 10 8 5 6 10 11 11 13 13 11 10 8 7 6 5 6 4 4 6 5 3 2 2 2 2 3 1 1 1 1 1 1 2 2 2 2 1 2 4 5 6 5 4 3 3 3
12 9 8 10 9 11 11 12 8 6 7 7 6 3 3 7 3 5 6 9 12 8 10 10 8 14 15 17 26 28 24 25 22 21 21 18 18 21 21 21 19 16 15 16 15 15 14 13 12 11 12 10 10 7 6 9 12 12 13 12 9 9 8 7 6 5 4 3 2 3 0 2 2 1 1 1 2 3 2 2 3 2 2 2 2 2 2 2 1 1 2 4 4 3 3 1 1
12 7 9 10 9 12 11 9 5 4 6 4 5 1 3 7 4 4 6 10 13 10 13 13 14 19 19 20 24 25 23 24 22 21 20 18 18 21 21 20 20 16 15 16 15 15 14 13 12 11 12 11 10 8 6 9 11 11 12 11 10 10 8 7 5 4 3 2 2 2 2 4 4 3 3 4 2 2 3 3 4 4 3 3 3 2 2 2 3 2 1 1 2 2 2 0 3
14 11 9 9 12 13 6 4 4 2 5 0 3 1 3 7 5 6 8 10 13 12 12 14 17 17 19 22 22 22 23 23 22 21 20 19 20 20 20 19 20 17 15 14 14 14 13 13 12 11 11 11 9 8 8 9 10 11 10 9 10 11 8 6 6 6 4 3 3 4 4 4 4 2 2 2 1 2 3 4 3 4 4 4 4 3 2 3 4 3 2 2 1 2 2 1 4
13 13 10 10 14 11 3 4 7 3 4 4 1 3 6 5 5 7 9 10 11 13 16 16 18 21 23 23 23 23 24 23 22 21 20 20 20 20 19 18 19 18 15 14 13 13 13 12 12 11 10 10 9 10 11 11 12 12 11 9 9 9 8 6 7 7 6 5 5 3 3 2 2 0 1 1 1 1 2 4 4 4 3 4 6 4 2 4 6 5 4 4 1 1 2 5 6
11 14 16 17 13 7 4 6 6 5 4 6 4 6 5 3 6 8 12 11 3 6 16 19 19 24 26 24 23 24 25 24 22 21 21 21 19 19 18 18 19 16 15 15 14 13 12 11 10 10 10 11 11 12 12 12 12 11 10 10 9 9 9 8 7 7 7 6 4 3 3 2 2 1 1 2 2 0 3 2 1 2 1 3 4 2 2 2 3 4 5 5 2 3 6 7 7
11 13 17 20 15 6 6 5 5 6 7 9 7 5 4 6 8 8 13 8 5 3 8 15 19 24 24 24 23 23 25 24 22 21 21 20 19 18 17 18 18 16 15 15 13 12 11 10 11 11 11 12 12 13 13 12 12 10 10 11 10 9 10 9 8 7 6 4 3 4 4 3 1 2 1 1 3 2 3 2 2 3 1 1 1 1 2 2 1 3 4 5 5 6 7 7 8
14 12 14 19 17 10 7 5 6 8 9 9 7 5 6 9 8 9 12 6 9 3 7 13 19 23 21 23 23 23 24 23 22 21 20 20 18 18 16 16 16 16 15 14 12 11 11 11 12 12 12 13 12 13 14 13 13 11 11 12 11 9 10 9 8 6 5 4 3 3 3 3 0 3 1 0 5 4 4 3 3 2 0 1 0 1 1 2 1 3 4 4 5 6 7 8 8
16 15 14 15 15 13 11 8 7 10 10 9 9 9 9 10 9 7 6 6 9 7 12 15 18 22 21 22 23 22 23 22 21 20 19 19 18 18 16 15 16 15 15 14 12 11 11 12 13 14 13 13 13 14 14 13 13 12 11 11 11 10 9 9 8 7 5 4 3 2 1 3 1 3 2 2 5 6 5 4 2 1 1 1 1 1 1 1 2 3 4 4 5 6 7 8 9
15 18 17 11 10 13 13 12 11 10 11 11 10 12 11 12 10 2 3 4 8 9 14 18 20 21 21 22 22 22 22 22 22 21 20 19 19 19 17 16 16 15 15 15 13 12 12 12 13 14 14 13 13 15 15 13 12 11 11 11 11 10 9 9 8 7 6 3 2 2 1 2 2 2 2 3 3 4 5 4 4 3 3 3 1 1 2 1 2 3 4 5 5 6 7 8 9
11 18 22 16 11 12 13 14 15 13 13 12 12 13 11 12 13 5 4 3 7 13 17 19 20 20 20 21 22 21 22 23 22 21 20 19 18 18 18 17 17 16 16 16 15 13 13 14 14 14 14 13 13 14 14 12 11 11 11 11 11 10 10 9 8 6 5 3 3 2 1 1 1 2 2 2 2 3 4 4 4 4 4 4 3 2 3 2 2 3 5 6 6 7 8 8 9
8 11 18 18 13 12 13 13 14 13 12 14 14 12 10 11 11 5 7 5 8 14 18 18 18 18 19 20 19 18 20 20 19 20 20 19 19 19 19 19 18 17 17 17 15 14 14 15 15 14 13 13 13 13 13 12 12 12 12 11 10 10 10 8 7 6 5 3 2 2 1 3 3 4 3 2 1 2 3 3 4 3 3 4 3 3 4 4 4 5 6 7 8 8 8 9 10
12 8 12 16 14 13 15 14 14 13 11 16 16 10 11 11 3 6 3 3 8 15 17 17 18 18 19 18 18 18 18 18 18 20 19 19 19 18 18 18 18 17 16 16 16 15 15 15 14 14 13 12 13 13 12 12 13 12 12 12 10 9 9 7 6 6 5 3 1 2 2 3 4 4 4 1 1 1 2 2 3 3 3 3 4 4 4 5 5 6 8 8 9 9 9 10 10
14 10 9 12 13 13 17 17 16 15 12 17 16 10 10 8 7 5 2 5 8 16 17 17 19 18 19 18 17 17 16 16 17 17 17 16 16 17 18 17 17 16 16 16 16 15 15 14 14 13 13 13 13 13 12 11 11 12 11 11 10 10 9 7 6 6 5 3 2 2 3 3 3 4 4 2 1 1 1 2 2 2 2 3 5 5 4 4 5 6 7 7 8 9 10 10 11
12 11 9 10 10 11 18 19 17 17 14 18 16 10 7 9 7 6 8 5 7 11 17 19 22 22 21 21 20 18 15 15 15 14 15 15 14 15 17 17 17 16 15 14 14 15 15 14 14 14 15 14 14 13 12 11 11 11 10 10 10 10 9 8 7 6 5 4 2 1 2 2 3 4 4 4 2 1 2 3 3 2 3 3 4 5 6 6 6 6 6 8 8 9 10 10 11
10 11 9 10 9 10 18 20 19 17 14 19 18 8 4 8 10 11 10 9 6 6 12 17 19 20 20 19 20 19 17 17 16 17 18 16 13 14 15 17 17 15 15 14 14 15 15 15 14 15 16 15 14 13 12 11 11 10 10 10 10 9 9 8 8 7 6 4 2 1 2 3 4 4 4 3 2 2 2 3 4 4 4 4 4 5 7 7 8 7 8 9 9 10 11 11 12
10 11 10 12 13 10 14 19 20 19 14 17 18 7 6 6 10 11 9 12 12 7 6 10 13 14 15 14 15 18 18 17 16 16 17 16 13 12 14 15 15 14 14 15 15 15 15 15 14 14 15 14 13 13 13 12 11 10 10 10 10 9 8 8 8 7 6 5 3 2 4 4 4 4 4 3 3 3 3 3 4 5 5 5 6 6 6 6 8 9 9 10 11 12 13 13 14
10 11 10 12 16 12 11 15 19 21 16 15 18 10 7 10 10 10 9 11 16 11 8 12 15 15 16 15 15 18 18 17 15 14 15 14 12 12 12 14 14 14 14 14 14 14 15 14 13 13 12 12 12 12 12 12 12 12 11 11 10 9 8 8 7 6 5 4 4 4 5 4 4 4 4 4 3 3 3 3 4 5 5 6 6 5 5 5 8 10 10 10 12 13 13 13 14
12 13 11 11 15 14 12 14 16 21 17 14 17 9 8 13 11 9 8 11 16 16 13 15 17 19 20 18 18 18 17 18 16 14 13 12 14 13 11 13 14 14 14 13 13 13 14 13 12 12 10 9 10 10 12 12 12 12 11 11 9 8 7 6 6 6 5 5 4 4 4 4 4 4 3 4 3 3 3 5 5 6 6 6 6 5 5 7 9 10 10 10 11 11 11 12 13
15 15 14 13 13 14 14 15 17 19 16 15 15 10 11 13 11 9 11 12 13 14 13 15 16 20 21 19 18 16 14 15 14 15 14 12 16 15 12 13 13 13 13 13 13 11 11 11 10 11 11 10 10 10 12 12 12 11 11 10 9 8 7 6 6 6 5 4 4 4 4 4 3 2 3 4 3 3 3 5 6 6 6 7 7 7 7 9 10 9 9 10 10 10 10 11 13
15 15 16 15 13 14 14 15 18 19 15 15 14 13 12 12 10 9 13 13 11 14 16 17 17 19 18 18 16 14 13 12 12 14 14 13 14 13 12 12 13 13 12 11 11 11 10 10 10 11 11 11 9 8 10 11 12 11 11 10 9 8 7 7 7 6 6 4 4 4 3 3 2 1 1 2 3 3 3 4 5 6 7 7 7 7 8 9 9 9 10 9 9 10 10 11 12
13 14 15 14 13 11 11 12 16 18 14 12 14 13 12 12 10 10 12 11 9 15 17 16 15 16 17 19 17 15 13 12 12 13 14 14 15 15 11 10 13 13 11 10 11 11 9 9 10 11 11 10 8 7 8 9 11 10 10 9 8 7 7 7 7 6 4 2 2 3 3 2 2 1 1 1 1 1 2 3 4 5 6 6 6 7 7 8 8 8 10 9 8 9 9 10 12
11 12 13 13 13 10 11 12 16 16 11 9 14 12 11 11 8 8 12 12 10 13 14 13 14 15 16 18 17 17 16 15 15 16 17 16 17 18 12 9 13 14 12 12 12 10 10 11 11 11 10 10 10 9 9 9 10 10 10 9 7 7 7 6 5 4 2 1 2 2 2 1 2 2 3 4 3 2 2 1 2 4 5 5 6 6 6 7 6 6 7 8 8 8 9 10 10
11 11 11 13 14 12 10 12 16 15 9 9 12 10 9 9 7 8 13 13 11 12 13 13 15 16 17 17 16 18 17 18 18 17 19 20 20 20 16 12 14 16 15 15 14 12 11 12 12 11 9 9 10 8 7 8 9 9 8 6 5 5 6 5 4 4 3 3 2 2 1 1 2 3 2 5 5 5 6 4 3 5 6 8 7 5 6 8 7 6 8 8 7 9 11 9 6
13 12 12 13 13 13 10 12 16 14 10 11 13 8 7 9 9 10 11 10 9 11 14 15 15 16 17 17 17 18 18 19 21 19 19 22 22 21 19 18 17 16 16 16 14 13 12 12 12 12 10 8 8 7 7 8 7 6 6 6 5 5 6 6 5 3 3 2 0 1 0 1 2 2 3 4 4 4 4 5 5 5 6 7 6 4 5 6 4 5 9 9 7 8 12 12 8
12 13 15 12 14 15 13 15 15 12 10 14 14 8 5 8 9 9 9 9 10 12 16 16 15 16 18 18 18 19 19 18 20 21 20 22 24 23 22 23 20 16 15 14 13 13 12 13 14 13 12 10 10 9 8 7 7 6 7 7 7 7 6 5 4 2 1 1 1 3 2 2 3 2 4 5 5 1 1 4 5 5 6 6 7 7 7 8 6 5 7 9 9 8 9 12 12
9 13 14 11 15 18 17 19 16 10 10 14 15 10 5 7 9 10 10 11 13 13 13 15 17 17 17 18 18 19 18 17 18 19 19 21 24 26 25 24 21 18 17 16 15 14 12 12 13 13 11 9 9 8 7 7 7 7 6 6 6 6 4 3 3 3 2 1 0 2 2 2 1 2 4 5 5 2 1 4 6 6 7 7 7 7 8 9 8 7 7 9 9 8 7 9 11
7 13 11 10 13 17 17 18 14 10 10 12 15 14 6 7 10 12 13 13 15 14 12 14 16 18 18 17 18 18 17 17 17 17 18 18 20 23 25 23 21 20 20 19 19 18 14 11 12 12 10 9 8 7 7 6 6 5 4 5 5 5 4 3 4 3 2 2 2 1 1 3 3 3 3 3 5 5 5 6 7 7 7 8 7 7 8 9 8 8 8 8 8 8 8 8 9
8 15 13 8 10 14 15 15 12 11 11 10 14 16 10 7 10 12 13 13 14 15 16 16 17 19 19 18 18 17 17 17 16 16 16 16 17 20 23 22 20 20 20 19 18 18 15 11 10 11 10 8 7 5 5 5 5 4 3 3 4 4 4 4 3 3 3 2 2 1 2 2 3 2 3 5 7 7 7 7 8 8 8 9 8 7 8 8 8 8 8 8 9 9 8 9 9
8 15 14 9 9 12 14 13 11 11 11 10 14 17 11 6 10 13 11 12 14 13 14 15 17 20 20 19 18 17 17 16 16 16 16 15 16 20 22 21 19 18 17 16 16 15 14 13 11 10 9 8 7 6 5 5 5 5 5 4 4 4 4 4 4 3 3 3 3 4 4 2 3 6 7 8 9 8 8 8 8 9 9 9 8 8 8 8 8 9 10 10 10 10 10 9 10
8 13 13 10 10 11 10 9 9 10 10 12 16 18 14 9 9 12 10 10 13 12 12 14 18 21 20 20 19 17 17 17 17 18 17 16 17 20 23 22 20 19 17 15 15 13 13 12 11 9 8 8 8 7 6 6 5 5 6 6 5 4 5 4 5 5 4 5 5 5 5 5 6 9 10 9 9 9 9 9 8 9 9 9 9 9 9 10 10 10 11 11 12 12 12 10 10
9 10 12 10 9 8 8 9 9 10 10 12 16 18 17 12 7 11 11 12 15 15 14 14 18 22 21 20 20 19 18 19 20 19 17 17 18 19 22 23 21 19 18 16 16 14 12 11 8 7 9 9 8 8 7 6 5 6 6 6 6 5 5 5 6 7 6 6 6 6 6 5 7 11 11 10 10 10 9 9 10 10 10 11 11 11 11 11 11 11 11 11 12 12 12 12 12
10 11 12 11 9 8 9 10 9 10 9 11 16 17 14 11 8 14 18 19 19 18 17 18 20 22 22 21 21 21 21 21 20 18 18 18 18 19 21 22 21 19 17 17 16 13 11 10 8 7 9 8 8 8 7 6 6 6 6 5 6 6 6 7 7 7 8 8 8 7 6 7 10 11 11 11 11 11 11 11 11 11 11 12 11 11 11 11 11 11 11 11 11 12 12 13 14
12 12 12 11 10 9 10 10 9 9 8 10 15 15 11 9 8 14 19 20 20 20 20 22 23 21 22 23 22 21 22 21 18 18 19 18 17 18 19 19 20 20 17 16 15 12 11 10 8 8 8 8 8 8 7 6 5 5 6 6 6 6 7 8 8 8 8 8 8 7 8 11 12 12 11 12 12 12 12 12 12 12 12 12 12 12 12 11 12 12 12 12 12 13 14 14 15
12 12 11 10 9 8 8 9 9 10 9 9 12 12 10 7 4 8 14 17 20 22 21 22 24 22 21 22 21 21 22 21 19 19 20 19 17 17 17 17 19 19 18 16 14 12 10 10 9 8 8 8 7 7 7 6 5 4 5 6 7 7 7 7 8 8 7 8 9 10 12 12 12 12 13 12 12 12 12 12 12 12 12 12 12 12 13 13 13 14 14 14 13 14 16 16 16
11 11 11 10 10 8 7 6 5 6 9 8 8 6 3 2 1 3 9 15 18 20 20 21 24 25 24 23 22 21 23 23 22 21 20 19 18 17 17 18 19 19 18 17 13 11 10 10 9 8 8 8 7 6 6 5 5 5 6 7 7 7 7 7 8 8 9 10 12 12 13 13 13 13 13 13 13 12 13 13 13 13 13 13 13 13 14 14 14 15 15 14 14 16 17 17 17
9 11 12 10 11 10 7 5 2 3 8 8 8 6 5 4 2 5 10 14 16 18 20 21 24 27 26 24 23 23 23 23 22 20 19 20 19 17 17 18 18 17 16 15 13 11 10 10 9 8 8 7 6 6 5 4 4 5 7 7 7 8 9 9 9 10 12 14 14 14 14 14 14 13 13 13 13 13 13 14 13 13 14 14 14 14 15 15 16 16 16 15 16 18 18 18 18
8 10 11 9 11 11 6 6 5 6 9 7 9 11 9 8 6 8 13 15 16 18 19 22 24 26 25 22 23 24 24 23 21 20 19 19 19 18 18 18 17 16 15 15 13 11 10 9 9 8 7 6 6 6 5 4 5 6 7 8 9 9 9 10 12 13 15 16 15 15 14 14 14 14 14 14 14 14 14 14 14 15 15 15 15 16 16 17 17 17 17 18 18 19 17 17 18
12 10 10 9 10 10 8 7 7 9 9 7 11 13 11 9 8 12 15 16 17 18 18 20 23 24 24 23 23 25 25 24 21 21 20 20 20 20 19 19 18 16 15 14 13 12 11 10 9 9 8 8 7 6 6 6 6 6 7 9 9 9 10 13 16 16 16 16 15 15 14 14 15 14 14 15 15 15 15 16 16 17 17 17 17 17 18 18 18 18 19 19 19 18 16 15 16
14 11 12 10 8 8 9 7 6 9 8 7 11 11 9 9 10 16 18 17 17 19 18 18 22 25 25 24 25 27 28 25 23 23 21 21 22 21 20 20 19 17 15 14 13 13 12 11 10 9 9 9 8 7 8 8 8 8 9 10 10 11 14 18 18 17 16 16 15 15 14 15 15 15 15 15 16 16 16 17 17 18 18 18 18 18 18 19 19 19 19 18 18 17 16 15 15
11 9 11 10 7 7 8 7 7 8 8 7 8 9 8 7 9 15 18 18 18 19 18 18 22 25 24 24 26 28 29 26 25 24 22 23 23 22 21 20 19 17 15 15 14 14 13 11 10 10 10 10 9 9 9 9 9 10 11 13 14 16 18 18 17 17 16 16 16 15 15 15 15 16 16 16 17 17 17 17 18 18 18 18 18 18 19 18 18 18 18 18 18 17 15 15 14
11 7 9 10 9 8 8 9 9 8 8 8 7 8 7 5 8 11 14 15 16 19 19 19 23 26 25 26 28 28 29 27 26 25 24 25 25 24 22 21 19 17 16 16 15 14 13 11 11 11 9 9 10 9 10 10 11 11 13 17 18 19 19 17 17 17 16 16 16 16 16 15 15 16 17 17 17 17 17 17 18 18 18 18 18 18 18 18 17 17 18 18 17 16 16 15 14
Wind_Direction
295 302 313 320 331 325 304 292 293 281 279 280 277 276 278 278 285 300 284 278 265 116 24 331 318 311 296 300 309 46 43 357 358 340 77 122 136 143 149 145 145 141 145 154 156 156 151 155 147 135 125 129 130 123 120 118 119 115 113 114 117 121 124 126 119 112 111 110 105 103 102 101 101 99 98 99 99 98 95 94 91 90 92 89 87 81 76 85 84 68 53 45 41 32 25 22 22
293 302 316 320 317 299 297 307 288 279 266 269 269 269 273 278 285 279 284 317 7 16 350 316 315 305 289 297 286 268 59 43 65 89 102 126 136 136 146 144 145 140 141 150 154 155 150 153 144 132 124 128 127 121 120 119 120 117 115 114 118 122 125 125 115 109 109 107 104 104 104 103 103 99 99 101 99 98 96 93 93 94 94 88 84 73 72 86 76 57 44 35 32 26 17 16 20
287 298 311 304 288 270 284 281 262 267 262 260 261 258 258 268 277 273 294 344 345 328 319 305 300 292 286 270 274 280 86 74 82 102 114 131 135 136 144 140 142 140 139 144 152 156 151 153 145 129 122 123 122 122 123 121 121 119 118 117 118 122 124 120 110 107 107 107 106 106 105 105 105 102 101 101 97 95 93 92 92 95 93 84 81 72 75 84 68 45 31 28 29 25 15 17 27
284 295 293 288 286 270 266 265 255 258 261 259 262 254 245 253 270 273 311 358 302 300 291 293 277 297 309 291 317 34 94 81 63 92 123 134 139 140 142 141 141 138 137 138 146 157 154 154 145 128 121 118 117 124 126 124 124 124 123 122 121 123 120 114 110 109 109 108 108 108 108 107 107 106 103 100 97 94 92 92 89 92 87 76 75 68 75 76 54 31 26 34 36 29 20 27 37
285 288 274 273 281 287 279 268 264 257 261 267 272 269 266 269 265 272 331 26 256 284 279 282 276 136 290 325 338 10 94 78 86 111 124 128 140 141 140 139 137 136 137 138 145 155 154 153 144 129 121 116 115 123 130 129 127 129 127 125 126 124 118 113 113 113 112 111 112 113 111 110 107 106 104 100 98 96 94 93 90 88 79 70 66 57 58 41 20 20 35 51 47 37 33 43 52
281 271 253 252 265 286 286 265 263 260 259 266 271 272 276 275 277 291 300 259 263 280 276 274 269 280 164 88 49 69 96 119 134 137 131 131 142 140 136 135 136 139 138 145 156 154 152 151 143 130 122 116 115 123 131 132 130 132 128 125 126 122 117 116 118 116 115 115 117 118 114 111 108 107 103 99 95 95 96 94 89 81 79 79 64 33 16 0 4 27 59 68 58 50 50 56 61
256 258 238 237 253 252 257 260 261 263 257 259 263 266 265 263 280 312 275 269 261 260 256 264 263 283 149 119 78 66 64 107 131 135 140 139 140 135 132 135 137 140 137 145 160 152 149 148 142 130 121 115 116 122 130 133 132 134 130 126 125 121 120 121 121 120 119 118 120 120 118 115 112 110 104 100 96 94 90 84 78 70 67 61 23 355 353 358 23 60 81 77 67 59 58 60 62
238 254 248 245 254 237 246 258 256 261 263 260 261 269 272 269 287 286 268 271 258 263 245 242 252 258 170 136 93 76 58 78 121 129 139 142 138 135 132 138 140 140 136 139 156 152 147 146 141 131 121 115 117 123 131 135 134 134 130 127 127 124 124 125 125 127 126 123 123 122 124 122 117 112 107 105 97 85 71 55 43 25 1 357 352 358 8 27 64 89 92 82 74 66 62 63 65
228 238 249 254 259 257 257 260 256 255 260 261 257 262 266 267 277 269 263 263 251 262 251 231 231 238 102 95 88 93 83 94 122 129 138 140 137 139 135 140 141 139 142 148 156 148 145 145 140 132 122 116 120 123 132 137 137 136 132 129 128 126 127 130 132 132 131 129 127 129 132 131 129 123 119 119 100 57 13 350 348 333 337 5 20 36 46 66 91 101 96 87 79 71 68 69 72
226 224 240 253 251 261 257 259 261 256 256 259 256 255 256 257 259 251 255 258 249 248 246 238 225 215 98 93 92 99 117 117 130 132 136 140 137 140 135 141 143 139 146 156 156 148 147 144 139 134 124 120 124 125 133 140 141 140 133 127 128 131 133 133 135 135 136 138 138 140 142 141 147 148 155 170 228 271 292 293 301 325 19 45 56 63 71 86 105 107 99 92 82 77 74 76 80
230 219 233 253 249 257 258 260 261 260 262 258 252 254 260 260 248 240 248 251 250 248 241 227 222 209 123 108 106 116 134 136 139 136 137 138 136 138 136 142 144 141 143 151 157 155 150 145 142 135 131 130 130 130 132 138 144 141 131 128 130 137 141 139 139 140 141 145 147 149 153 158 161 164 183 210 268 283 297 302 336 20 48 63 76 80 87 99 113 113 106 98 87 84 79 81 86
234 224 223 243 249 254 260 265 264 265 266 260 242 245 249 247 238 239 248 246 245 246 238 218 223 222 148 118 122 134 142 145 142 140 139 136 136 139 139 142 145 144 141 143 155 159 154 150 147 140 141 140 137 137 132 135 142 142 134 131 135 140 145 147 148 149 150 154 158 160 166 174 171 172 184 204 290 327 334 344 1 25 49 62 78 88 96 107 120 121 113 105 96 90 84 87 90
231 238 227 239 250 257 260 262 265 265 266 266 256 239 212 206 230 242 252 250 242 239 237 225 227 217 129 117 135 145 145 147 145 143 142 138 140 139 138 143 147 147 143 141 146 156 158 156 156 152 151 149 146 140 136 138 140 144 140 137 139 142 147 152 160 165 166 164 165 168 165 167 169 170 168 175 297 353 356 7 9 28 44 56 67 84 101 112 125 129 122 115 108 98 90 90 92
227 240 242 249 250 255 259 258 263 261 259 264 255 157 137 183 244 251 257 253 243 233 236 229 222 169 116 125 138 153 154 149 150 145 144 141 141 140 140 145 147 143 141 142 140 146 152 155 164 161 156 157 153 146 142 141 140 145 145 143 142 144 148 156 168 169 170 166 155 156 153 169 178 174 164 172 244 4 349 8 19 30 37 56 65 77 101 115 129 136 132 125 120 110 99 95 95
228 238 243 255 253 253 253 251 258 260 263 256 140 106 143 235 244 253 256 254 254 232 233 220 215 190 140 161 150 162 163 153 158 152 146 141 140 141 142 146 143 140 141 144 141 142 146 151 160 157 158 159 153 158 152 142 141 144 144 143 144 147 147 157 163 154 157 149 128 110 94 84 92 120 63 247 250 313 328 353 18 36 32 48 59 67 96 120 132 139 140 134 129 118 105 100 98
228 240 241 245 249 249 246 245 247 250 260 164 108 112 213 247 227 246 248 250 264 227 224 206 204 214 164 173 161 167 166 156 162 156 149 143 142 141 142 145 140 142 145 143 141 140 144 145 147 149 154 151 153 172 161 148 144 146 145 142 145 149 148 154 146 128 124 112 102 93 83 73 57 42 35 353 281 234 264 332 328 15 27 33 43 49 75 121 134 142 144 142 135 123 107 94 88
222 237 240 237 241 243 245 244 239 244 243 117 123 195 229 254 220 232 238 242 254 206 203 196 186 183 132 153 157 166 166 158 160 154 151 145 145 145 143 146 143 146 147 142 137 137 141 142 144 149 150 149 152 155 159 154 143 141 141 138 144 148 151 144 115 101 101 75 75 90 82 82 70 30 30 336 326 336 329 338 320 337 11 22 35 35 38 70 132 144 143 146 139 122 103 81 62
215 223 231 232 234 238 242 245 242 253 247 127 135 202 222 259 241 216 214 221 234 189 194 194 111 83 99 127 145 157 160 157 158 153 152 147 147 148 146 149 148 150 148 141 140 142 143 145 151 150 146 147 148 147 161 155 140 136 135 137 145 146 146 128 108 104 103 71 71 102 169 138 139 213 192 188 337 348 356 347 326 330 348 3 23 22 17 3 2 114 151 154 135 116 117 101 359
216 216 227 232 237 241 246 259 259 248 261 113 129 176 207 252 275 233 214 207 215 196 197 181 111 93 116 133 143 154 155 154 157 155 153 149 151 149 148 151 150 151 148 144 147 149 147 152 155 147 146 148 147 146 150 142 136 141 141 148 153 146 144 134 136 145 143 163 164 168 161 117 123 126 115 135 143 6 20 359 332 339 340 348 5 9 17 6 353 345 312 178 142 125 120 86 300
217 224 231 231 239 248 249 279 288 278 287 13 147 236 237 248 254 234 229 208 204 203 192 166 135 126 134 139 147 157 157 157 158 157 153 151 154 151 149 150 151 151 148 148 150 150 150 157 156 152 152 149 147 140 134 134 138 146 151 158 155 151 153 155 164 172 180 182 163 137 109 99 116 110 78 106 93 35 18 360 345 343 342 341 342 332 353 17 357 337 335 301 178 105 71 301 268
214 223 240 237 240 252 223 223 252 251 272 263 226 263 253 254 243 232 237 212 200 206 189 173 162 151 145 146 153 160 160 161 160 159 156 154 154 152 152 149 151 151 146 146 148 149 151 155 156 154 149 146 145 138 142 146 144 151 159 158 151 154 162 169 175 190 199 172 150 127 118 135 132 80 335 358 9 36 332 349 360 344 344 332 345 358 336 7 360 339 338 328 3 79 262 240 233
219 225 238 245 250 266 231 211 227 211 219 240 231 251 268 291 243 224 234 222 200 225 193 184 175 155 150 151 155 161 162 164 161 160 158 154 151 150 154 152 151 150 146 145 145 150 150 152 154 148 145 147 144 145 153 149 146 156 160 154 153 160 164 167 170 182 183 161 156 159 165 146 117 211 325 351 335 287 274 305 358 315 329 307 342 49 270 331 14 321 312 312 297 242 242 237 238
224 230 230 242 251 260 245 204 185 205 215 222 221 252 277 268 249 219 231 218 77 354 186 169 157 146 149 152 157 162 162 162 159 159 156 151 149 150 155 154 152 149 147 146 144 145 147 149 149 147 149 148 150 155 154 146 150 158 156 150 152 158 154 154 156 157 155 146 176 177 150 100 63 242 95 4 296 271 267 260 231 266 188 227 283 142 270 310 110 252 266 271 259 243 241 243 250
222 236 225 233 237 228 230 194 174 211 218 219 226 258 246 246 249 211 220 172 112 123 122 129 140 145 152 151 157 163 160 159 154 155 153 148 149 150 152 152 150 149 148 147 147 147 150 152 150 151 151 151 156 152 146 149 157 156 153 150 150 154 145 147 152 142 140 153 174 165 137 111 46 268 155 287 290 289 276 263 245 272 243 185 203 99 307 299 257 265 268 264 262 255 249 249 253
218 236 235 228 224 219 222 215 210 212 213 218 226 242 233 233 240 208 203 135 135 152 124 131 145 150 154 151 158 162 159 156 151 153 151 149 150 149 150 150 149 150 150 150 154 156 155 154 152 151 152 155 153 144 148 155 152 146 146 148 148 147 141 147 148 140 149 165 159 137 172 148 115 310 325 319 313 316 301 284 274 301 313 265 94 57 302 279 274 274 277 275 270 267 261 255 256
213 226 237 228 217 225 225 223 222 212 213 215 218 232 227 223 223 150 67 118 145 148 134 141 146 147 151 154 161 160 155 153 151 152 149 148 149 149 150 150 151 153 153 153 156 160 157 154 152 151 153 154 149 148 155 153 147 145 142 144 140 138 147 152 146 147 150 155 168 165 221 154 117 304 311 310 316 322 312 315 327 343 328 322 32 349 290 285 283 273 279 283 272 271 274 269 266
211 221 231 227 218 224 221 220 217 210 213 210 216 226 219 216 215 172 102 122 156 155 142 140 144 147 152 157 159 157 154 153 153 150 146 148 149 151 152 152 155 155 156 153 155 161 155 152 152 152 153 154 152 152 152 150 152 153 149 146 140 145 153 147 144 148 139 149 182 168 285 2 51 298 287 287 315 326 315 323 327 335 329 325 6 337 305 309 296 284 280 277 270 264 268 271 273
215 223 230 224 220 223 216 218 211 207 211 207 219 227 211 211 214 170 132 161 186 161 142 141 146 148 151 153 152 150 150 152 155 151 147 152 154 153 154 155 155 156 157 153 159 162 153 154 156 154 157 155 154 152 149 152 155 154 151 146 147 152 145 140 147 144 138 157 164 117 34 21 26 355 339 309 295 306 302 316 312 316 330 323 330 317 314 320 311 305 303 301 298 287 281 279 279
225 219 230 220 215 227 218 215 208 206 208 199 211 229 212 198 139 53 83 224 198 157 147 151 151 150 147 146 146 143 145 151 152 153 156 156 153 152 153 154 153 154 154 154 167 164 151 156 157 154 157 155 155 154 154 156 156 154 151 149 153 151 141 146 149 140 144 140 97 83 60 49 43 20 6 319 213 228 300 326 328 321 323 319 315 313 324 326 319 318 319 318 309 304 300 293 290
225 211 229 222 210 222 217 213 206 205 206 192 200 225 203 149 72 52 93 269 217 162 156 152 144 143 137 134 132 125 130 135 132 141 154 155 149 149 153 154 154 153 155 164 174 161 149 154 153 153 155 156 158 156 157 158 155 153 152 153 153 145 141 143 136 135 135 109 78 76 69 56 44 34 29 36 150 141 327 348 16 357 335 342 334 326 328 315 306 307 308 307 299 299 300 296 295
218 209 221 228 220 217 205 205 203 202 200 191 203 229 190 118 114 156 147 198 227 164 150 145 142 139 132 129 127 124 121 115 118 133 150 157 155 154 157 158 156 153 158 167 166 153 152 156 158 163 161 161 163 160 160 159 154 153 150 150 149 144 141 137 133 128 116 102 93 84 75 41 21 24 27 34 49 18 327 340 1 16 359 354 342 324 314 303 298 297 295 297 295 295 297 294 293
209 213 214 218 230 219 192 192 200 200 191 191 211 225 138 130 156 162 153 163 187 180 158 149 143 132 129 132 133 139 136 128 140 152 156 162 163 162 163 161 156 154 161 164 159 155 160 165 170 173 169 167 166 163 162 159 155 153 149 147 146 143 141 140 133 122 113 109 99 63 52 34 11 3 12 21 29 11 356 353 341 341 344 336 330 319 314 316 318 316 307 304 301 298 297 294 292
203 213 217 206 219 227 187 181 193 199 191 189 212 216 120 160 168 153 162 155 152 190 192 149 134 123 131 137 134 140 140 139 151 158 158 161 164 168 167 161 154 152 161 163 162 163 166 174 178 174 172 170 168 167 162 158 154 150 148 145 145 145 145 141 128 119 118 118 113 68 47 44 24 7 5 354 12 26 14 3 335 332 337 327 326 324 325 329 319 316 317 313 307 305 305 304 303
197 206 221 206 212 225 183 172 186 198 201 190 209 221 137 155 161 148 163 150 143 157 180 163 149 147 155 153 144 145 145 146 155 162 161 158 157 164 167 158 152 153 159 162 168 172 173 179 179 173 173 169 170 168 157 156 153 147 148 144 146 151 145 137 128 123 119 111 99 69 51 48 31 17 4 347 7 32 357 331 315 319 324 315 317 323 327 318 301 306 315 311 307 311 314 311 310
196 196 211 207 208 217 186 172 184 192 201 197 199 197 120 134 143 136 135 142 152 157 180 187 167 164 164 157 154 152 151 150 153 156 153 154 155 159 168 158 150 152 155 164 177 181 176 178 177 172 172 167 172 172 158 156 149 143 146 143 142 144 137 136 131 122 117 108 99 83 70 63 36 19 8 345 4 23 330 314 320 325 321 316 320 319 315 306 301 309 314 310 311 315 314 311 310
201 194 205 211 200 209 194 175 182 187 197 204 189 152 126 137 140 142 143 155 166 160 188 207 178 164 159 152 152 149 144 140 141 147 147 147 149 156 171 160 152 154 158 174 184 183 178 181 178 169 167 167 176 177 159 149 143 137 138 141 140 137 134 132 129 127 131 125 107 95 87 82 61 44 24 353 6 9 337 335 338 334 325 324 326 322 319 315 313 317 314 311 314 314 311 310 310
206 194 205 215 203 207 195 170 175 183 198 204 178 141 139 148 151 168 172 174 174 166 194 208 176 159 155 149 142 131 126 127 135 149 146 128 128 151 175 165 158 159 165 180 182 178 179 181 173 162 161 165 175 186 166 149 146 138 132 137 139 140 146 149 147 147 148 138 109 104 107 102 91 89 62 15 23 2 348 351 338 332 330 326 324 320 321 320 320 323 316 314 316 313 312 313 312
218 201 201 213 211 196 167 154 169 184 204 197 166 148 146 155 168 183 183 187 187 177 194 202 172 159 158 148 134 122 120 125 128 131 138 136 137 154 167 158 157 160 161 166 168 171 171 171 167 160 158 160 168 187 178 153 143 141 138 138 138 139 144 147 146 142 143 147 114 119 126 119 134 155 157 146 69 353 339 343 330 326 325 319 314 309 317 323 325 325 316 315 316 310 315 321 320
227 213 199 209 211 177 150 162 175 188 207 183 162 159 150 155 170 183 188 193 191 183 192 195 177 167 158 145 135 130 127 128 126 120 127 137 148 154 146 130 149 159 158 157 161 161 158 162 161 157 162 168 171 177 175 154 140 144 141 134 144 151 153 153 151 149 144 92 85 98 102 104 158 170 179 198 204 216 223 292 335 314 307 304 297 291 293 294 293 304 306 308 315 318 321 321 323
226 217 197 210 201 170 159 174 183 193 197 170 164 156 143 156 176 189 194 189 178 183 195 192 179 168 153 143 141 141 135 131 133 129 123 125 138 148 147 147 153 155 151 149 158 161 161 164 156 152 161 175 178 169 157 147 140 143 140 134 149 158 160 162 156 145 125 105 102 111 138 167 185 185 205 216 218 222 224 238 251 253 267 276 279 278 280 273 261 278 296 295 307 325 322 310 311
221 219 208 210 181 168 172 171 185 193 183 175 170 152 148 169 179 180 180 179 175 186 192 185 176 166 156 151 149 145 141 138 140 140 133 130 134 139 148 160 161 158 151 144 150 158 157 155 150 148 148 153 157 142 127 126 122 120 117 115 115 114 123 128 124 115 101 116 224 307 50 321 285 282 301 280 260 237 230 256 264 263 275 282 292 312 314 304 278 278 301 306 314 328 322 315 309
212 219 223 207 166 178 188 170 180 191 186 183 176 175 176 173 184 176 163 172 182 186 187 183 176 168 164 161 153 146 143 141 142 142 139 139 141 141 147 155 159 163 161 151 147 150 148 146 148 149 144 139 137 130 121 117 106 92 85 89 100 106 116 122 125 126 124 141 322 318 319 351 346 324 305 303 314 337 224 284 302 322 331 334 348 354 349 349 344 317 320 330 335 334 326 324 320
205 203 229 227 180 192 193 175 183 195 186 183 189 205 178 163 198 194 179 184 183 183 188 188 181 172 167 161 154 150 145 140 139 139 138 139 142 146 150 154 158 162 165 161 150 147 147 142 144 146 142 130 123 115 108 105 102 99 97 93 95 103 120 146 159 175 219 215 6 309 301 315 294 256 270 295 333 15 334 315 335 350 352 359 6 1 358 0 358 347 343 344 342 340 336 331 326
207 175 210 248 198 191 185 179 192 199 180 180 203 222 202 168 196 195 190 193 187 185 189 191 185 175 167 158 154 153 149 144 141 140 142 142 142 147 151 153 157 163 167 164 156 154 154 145 142 145 137 121 113 108 102 99 99 107 118 113 107 119 146 167 165 160 168 175 198 230 5 326 290 273 291 328 11 29 25 11 16 21 19 24 26 17 10 11 8 360 354 352 350 347 345 338 331
211 164 184 228 193 181 180 184 200 201 191 190 203 219 223 184 180 187 192 195 192 187 187 190 186 177 168 159 156 153 150 148 147 148 149 148 144 145 150 150 153 163 166 165 164 159 154 151 145 139 129 114 103 97 83 68 82 107 116 117 118 130 142 144 138 130 124 147 222 164 83 2 341 29 43 45 51 48 42 38 37 37 36 37 36 30 23 20 15 10 3 0 0 357 349 339 331
194 159 178 199 184 185 190 197 208 201 203 209 202 209 224 200 172 181 189 197 198 189 187 188 181 176 170 162 159 153 151 150 151 153 151 149 144 144 152 154 153 157 158 163 166 154 147 151 143 125 114 104 89 77 53 41 73 110 109 113 122 117 118 123 120 111 96 93 80 80 92 65 47 72 72 65 65 59 52 48 45 42 41 40 38 35 30 27 23 19 12 7 6 2 354 344 335
169 160 183 189 190 199 201 210 214 207 211 213 206 206 218 218 182 175 181 198 199 190 189 185 178 177 172 167 162 155 153 150 148 148 145 144 139 141 153 155 155 155 151 157 162 153 151 151 140 121 106 100 93 84 69 55 69 93 94 105 120 114 110 113 111 102 86 85 86 82 82 76 78 84 79 73 71 67 60 54 50 48 45 42 40 38 34 31 31 27 18 11 9 4 0 357 348
167 177 191 183 190 199 202 212 212 216 218 211 209 209 216 226 196 171 178 195 202 199 191 183 180 177 169 167 164 157 155 150 148 149 146 144 137 139 150 152 154 155 151 158 162 158 156 148 141 127 100 92 94 87 80 71 71 79 83 91 100 102 105 107 106 105 101 98 97 94 89 80 83 85 82 77 72 69 64 58 53 49 45 42 39 37 36 32 33 31 22 15 13 8 6 7 2
176 188 191 181 187 189 199 207 206 217 219 209 209 207 215 231 200 177 183 193 202 200 188 184 182 172 165 166 162 156 154 150 149 151 149 148 141 140 145 146 152 156 153 157 157 157 163 157 146 124 97 90 91 86 82 78 74 77 81 88 93 98 105 108 106 105 105 103 100 98 99 95 91 87 83 77 72 66 62 57 53 48 44 43 39 37 37 32 37 38 25 21 22 16 16 18 14
183 192 189 185 187 185 197 201 201 216 215 211 211 202 210 233 199 180 183 187 195 192 182 180 176 166 164 165 158 154 157 154 152 154 152 149 144 141 143 147 157 159 154 154 155 162 166 149 124 104 95 91 85 83 82 78 72 73 82 90 92 97 103 103 104 102 100 102 104 103 103 101 95 88 81 75 71 67 62 56 52 49 46 45 42 41 43 38 42 45 34 30 31 29 31 29 24
189 200 198 199 199 188 196 200 199 208 205 209 215 202 203 221 186 164 173 176 186 186 175 171 169 165 164 161 156 158 164 163 159 157 154 150 145 142 143 147 154 155 152 154 155 152 141 123 109 101 96 90 84 82 80 77 75 78 88 97 97 99 101 101 103 104 102 104 109 110 107 103 95 88 83 77 72 67 63 59 54 53 51 51 48 46 48 46 45 47 41 36 36 38 38 35 31
190 206 210 210 205 188 190 216 227 216 205 201 206 191 162 200 88 140 175 176 177 171 161 162 165 165 164 159 159 163 166 166 161 155 153 150 145 141 142 145 147 151 153 153 148 136 123 114 110 105 95 89 87 84 81 82 85 86 94 101 102 104 110 113 111 112 113 110 110 110 106 102 96 90 84 78 73 68 66 65 60 57 56 53 53 52 52 52 50 50 48 41 43 46 43 39 37
183 205 215 207 209 204 189 209 258 233 216 195 190 188 137 140 188 188 189 181 168 161 160 163 160 159 162 161 162 166 165 164 159 152 150 148 143 141 142 145 146 147 147 142 136 130 122 114 111 107 100 96 91 88 90 92 98 104 106 107 111 121 132 130 118 115 115 112 110 108 103 100 96 90 86 80 77 72 69 70 65 62 62 58 57 58 57 56 55 54 53 48 48 49 44 39 38
191 198 206 197 215 225 203 197 194 205 219 190 189 206 187 177 186 182 191 185 168 162 164 165 159 159 163 162 165 169 166 162 156 150 149 146 143 143 142 143 142 139 137 132 129 126 122 118 118 115 109 104 98 99 104 104 106 109 108 109 111 115 124 122 116 116 115 113 111 107 103 100 95 90 87 83 79 76 73 73 70 66 65 61 59 59 58 57 56 54 53 50 48 46 40 33 31
215 198 198 198 211 214 198 201 197 200 216 196 196 211 209 202 177 168 188 188 172 167 165 166 167 169 170 166 169 172 167 161 155 150 150 147 145 144 142 141 140 138 135 131 127 125 125 126 125 121 117 114 110 109 109 105 106 105 103 108 106 100 105 114 118 118 116 112 109 105 102 99 95 91 89 86 83 80 76 72 70 67 64 59 56 57 56 55 54 52 50 49 47 43 37 30 24
221 207 202 209 212 212 205 200 197 202 210 205 202 207 216 215 176 168 186 187 178 176 172 172 173 173 174 171 171 171 167 161 156 152 151 149 148 147 144 143 142 141 137 132 130 130 130 130 126 123 121 116 111 110 110 106 107 109 107 104 102 105 114 119 120 116 114 111 106 104 102 98 96 93 90 89 86 81 76 72 68 65 63 60 56 55 54 53 51 50 48 47 46 43 36 31 25
211 209 203 200 193 211 216 202 205 211 204 201 205 208 218 211 170 170 185 186 184 183 177 177 175 173 174 171 167 167 166 161 155 153 151 150 150 147 146 146 144 143 139 136 136 135 134 132 127 126 122 116 113 111 110 109 109 110 107 106 110 116 120 120 117 114 111 108 106 104 101 99 100 97 92 90 88 83 77 72 70 66 63 60 56 54 53 51 49 48 47 46 46 42 35 30 24
196 203 205 197 185 197 209 205 210 216 209 206 211 213 216 196 159 167 183 185 187 188 183 180 177 175 174 168 165 166 166 162 156 154 152 151 149 147 147 147 146 145 143 141 140 139 138 136 130 127 120 115 118 117 113 112 113 110 109 114 119 121 120 117 114 113 110 108 108 105 102 99 99 98 95 90 86 83 78 73 70 66 62 59 55 53 52 50 48 47 45 43 42 39 33 26 21